Location: Unspecified
(48.5539°N, 71.6350°W)
Time: 08:36:48
(UTC-05:00)

ISS - Pass Details

Date: 31 January 2019
Orbit: 403 x 411 km, 51.6° (Epoch: 23 February)

Event Time Altitude Azimuth Distance (km) Brightness Sun altitude
Rises 19:56:58 0° 291° (WNW) 2,342 1.1 -32.1°
Enters shadow 19:58:58 - 291° (WNW) 1,517 -0.1 -32.4°
Reaches altitude 10° 19:59:04 10° 291° (WNW) 1,480 - -32.4°
Maximum altitude 20:02:23 89° 13° (NNE) 417 - -32.9°
Drops below altitude 10° 20:05:43 10° 112° (ESE) 1,479 - -33.5°
Sets 20:07:48 0° 112° (ESE) 2,340 - -33.8°
